STARLINK-34185

Last updated on Sat Aug 02 2025 00:02:05 GMT+0000 (Coordinated Universal Time)

1 64744U 25144W 25213.58335648 -.01567008 00000+0 -34410-1 0 9997 2 64744 53.1598 124.6853 0000838 92.4042 302.2933 15.46572620 6092
UTC large
Height (km)
Speed (km/s)
/
Latitude / Longitude
Inclination (degrees)
Orbital Period (minutes)
Azimuth
Elevation
Range (km)
Doppler Factor

Next 0 passes for location: London (51.5072 / 0.1276)

Sorry there are no passes over London.
STARLINK-34185